RH
81 82 83 84 87 87 87 89 90 88 86 85 85 85 83 81 69 23 21 28 30 68 60 18 15 14 12 13 11 10 16 16 12 10 8 6 9 8 9 13 16 23 26 40 46
84 84 84 84 84 89 88 89 86 85 85 86 86 86 83 80 36 24 41 66 64 70 18 17 18 15 16 14 12 12 17 15 10 9 9 9 9 8 9 12 13 15 36 50 51
89 89 86 87 90 88 86 85 84 84 85 85 86 87 84 62 30 20 62 60 61 49 19 18 18 18 20 16 15 13 15 12 11 10 9 10 10 9 9 10 10 11 21 52 60
91 90 89 87 82 81 84 84 84 84 85 86 86 87 85 39 29 23 71 62 56 24 19 18 19 21 21 20 15 17 13 12 11 10 10 11 10 10 10 10 8 9 14 48 56
91 90 82 76 78 80 85 84 84 84 84 82 85 88 45 32 25 14 73 57 25 20 20 19 20 19 22 19 16 17 15 12 12 12 11 10 11 12 11 10 9 8 12 50 56
87 78 76 75 77 78 81 81 82 83 83 82 82 89 37 43 17 16 18 15 18 16 17 17 18 17 20 21 22 19 17 15 14 14 13 13 12 11 11 10 11 10 11 23 53
78 77 74 69 68 73 76 77 77 80 81 83 85 50 36 35 19 17 17 18 17 18 20 16 16 19 19 22 17 18 20 18 17 16 16 12 13 12 10 9 10 10 11 11 20
77 71 67 66 72 75 78 79 80 80 83 87 85 38 42 22 19 19 16 17 16 17 19 19 20 23 23 20 21 23 23 28 19 16 15 15 18 12 9 9 10 11 11 11 16
72 68 66 73 74 77 79 80 81 78 85 81 59 45 44 31 20 16 17 24 23 22 21 19 23 30 30 33 34 26 32 27 21 14 14 14 17 11 10 10 13 12 12 11 13
71 68 64 72 74 78 81 77 60 83 69 43 35 42 32 31 19 22 20 24 28 28 27 31 33 38 33 35 41 32 27 23 23 16 14 15 17 13 11 12 13 14 14 14 14
70 65 65 75 78 79 59 39 51 61 50 44 36 36 27 21 19 23 20 23 28 30 40 31 41 45 35 31 29 29 30 28 22 18 19 20 18 16 14 13 15 15 15 16 16
68 68 70 75 77 80 57 51 46 48 54 35 36 34 27 23 31 26 20 26 29 37 30 34 43 32 26 27 29 29 30 29 22 19 21 22 22 18 17 16 15 15 15 15 16
71 68 68 73 82 64 48 44 33 39 50 34 28 27 25 23 28 27 20 22 28 32 31 36 29 23 25 28 31 31 32 32 29 23 21 24 27 23 18 16 16 15 15 15 16
68 66 74 76 57 34 44 32 32 50 59 31 28 23 23 24 28 19 18 23 26 29 26 28 23 25 26 27 27 37 27 26 27 31 40 28 40 30 23 18 16 16 18 17 17
66 64 72 70 52 33 43 31 36 58 73 26 26 20 20 25 22 21 16 22 30 27 26 30 25 26 28 26 24 30 32 35 34 41 45 38 46 34 24 23 19 18 27 29 30
66 66 72 48 48 42 35 36 53 73 67 27 21 25 25 21 21 18 20 20 21 26 25 27 20 22 23 22 26 33 40 50 44 47 89 58 42 36 28 28 25 27 29 29 30
65 64 59 39 45 41 47 47 67 72 22 22 23 21 21 21 22 21 23 27 32 45 39 26 23 21 27 29 22 26 46 87 72 70 79 41 43 40 36 28 29 31 30 31 32
59 65 59 35 44 50 52 55 84 34 28 20 24 22 26 20 20 22 25 29 35 38 37 34 30 35 37 40 45 39 44 86 99 83 83 64 85 61 40 26 26 25 24 25 28
58 61 53 64 56 50 54 80 54 32 22 24 21 27 26 20 25 25 27 26 43 38 47 45 36 36 40 41 44 40 50 50 94 74 91 51 41 56 60 68 58 51 32 26 24
51 47 51 60 59 62 63 70 37 24 21 25 36 27 26 18 21 28 28 42 46 36 37 45 61 28 30 33 48 50 51 62 83 98 69 38 31 72 95 90 76 55 40 34 27
59 50 63 55 61 52 90 63 31 23 22 29 32 34 28 26 21 24 28 41 36 35 37 33 46 41 32 45 39 58 60 73 77 94 89 65 56 84 94 86 74 54 40 40 35
59 94 57 59 70 57 72 32 40 26 21 23 31 34 34 29 32 29 26 24 29 32 62 34 46 60 37 22 21 38 43 70 85 90 92 84 60 56 64 78 76 70 53 43 36
75 86 55 63 100 90 43 35 29 29 30 26 28 26 25 29 35 28 26 19 30 34 40 37 63 78 43 27 22 30 52 63 88 91 76 83 52 58 57 63 43 43 43 45 45
66 98 79 68 73 70 56 44 38 28 29 28 30 28 30 34 28 33 29 23 24 30 53 41 42 54 65 45 30 36 31 52 72 86 61 69 52 36 30 26 24 26 22 40 44
88 84 53 90 78 68 56 46 37 35 26 28 32 32 33 41 35 35 28 26 25 40 38 41 66 38 31 28 27 26 25 22 28 42 63 43 37 30 23 19 19 16 18 14 16
94 75 44 37 48 49 61 49 44 40 47 43 54 55 52 57 55 93 59 58 58 43 55 62 97 75 78 44 35 42 31 26 24 22 21 23 24 15 15 14 14 13 12 13 16
40 38 46 47 41 40 45 44 39 44 40 37 42 49 48 51 47 44 42 40 43 50 54 56 68 78 86 49 46 71 47 35 30 25 24 29 24 18 16 14 14 14 14 23 30
Wind_Speed
6 6 5 3 4 6 6 8 9 11 12 14 16 17 19 20 24 18 17 4 4 2 5 12 16 15 15 15 16 19 12 15 20 19 20 14 4 1 5 7 9 3 7 11 19
7 7 7 6 5 7 8 8 10 11 12 14 15 17 19 18 18 22 4 5 6 7 7 12 11 13 10 16 14 14 13 21 20 20 17 18 16 13 11 11 11 9 17 18 18
8 7 7 6 5 6 8 9 10 12 13 14 16 18 21 21 15 2 6 6 3 5 10 14 13 15 17 16 17 18 17 20 20 20 18 17 19 17 16 16 14 9 16 24 18
8 6 7 5 6 8 9 9 9 11 13 14 16 18 23 8 8 8 9 9 6 5 11 14 14 16 18 19 19 22 21 21 19 20 21 17 19 18 18 19 17 11 1 19 19
8 5 3 4 7 8 9 10 10 11 12 13 14 15 13 10 20 13 9 8 8 12 14 15 15 17 19 17 20 22 23 20 20 22 23 21 20 21 21 19 18 17 8 21 18
5 3 1 2 4 7 8 11 12 12 14 14 13 15 8 20 11 6 11 6 10 11 12 14 15 16 18 20 20 21 23 25 23 24 24 25 24 21 20 19 19 19 19 12 22
6 5 3 2 3 6 8 9 11 12 13 15 12 8 13 23 19 19 18 17 16 18 19 16 16 15 15 20 17 20 24 20 21 22 25 25 26 27 23 23 22 21 20 19 14
8 5 3 2 4 7 10 11 13 13 14 11 6 9 13 14 14 17 15 18 19 20 20 17 15 18 18 18 24 24 26 23 22 25 24 25 24 23 20 17 21 23 20 19 16
9 6 1 3 5 8 12 14 16 14 10 4 6 8 16 6 10 13 11 10 11 7 10 11 13 16 15 18 19 18 21 26 27 25 26 24 25 18 17 18 12 12 13 16 16
8 5 1 4 8 9 12 13 11 5 9 11 10 10 21 13 9 4 10 8 8 11 12 10 8 13 14 14 18 18 21 22 21 20 20 19 20 22 11 16 16 13 15 16 14
9 5 0 5 9 10 11 7 7 7 9 12 7 11 12 8 6 12 10 13 10 11 15 16 15 17 19 20 23 24 25 26 23 23 26 22 23 20 19 16 15 14 13 16 17
7 4 4 6 10 11 5 6 6 4 11 19 25 25 24 19 20 22 14 10 12 18 16 18 24 21 22 23 24 25 27 26 25 23 21 21 26 23 21 20 19 16 17 20 17
6 4 3 7 11 7 6 5 4 7 8 14 23 17 19 17 22 25 18 18 18 19 18 22 17 16 21 21 24 26 23 23 27 23 24 20 29 20 25 21 20 21 19 18 15
4 3 5 9 2 6 4 2 3 3 6 5 6 4 7 6 9 15 15 10 13 19 19 19 21 24 24 27 20 25 16 22 24 21 17 17 21 21 21 21 18 21 18 21 13
4 2 5 4 7 6 6 1 3 3 6 7 9 7 6 10 11 12 8 8 14 14 11 16 14 10 16 19 15 25 11 16 22 20 22 27 12 26 16 20 20 13 16 15 14
3 4 7 4 5 5 3 5 4 6 8 5 5 7 11 12 11 5 8 11 11 13 15 21 21 19 18 21 12 11 12 15 15 12 9 31 13 24 14 14 12 14 15 13 14
3 4 5 7 1 4 4 4 6 7 4 6 2 4 8 10 10 6 14 14 8 6 13 17 21 16 8 14 19 14 11 5 7 11 11 17 16 15 18 9 17 16 13 12 13
3 1 4 5 6 5 5 7 10 7 10 1 0 7 10 12 10 14 10 15 8 7 11 14 17 7 13 8 11 14 11 8 7 7 3 7 7 2 14 16 13 12 10 11 11
2 2 3 5 4 1 6 10 6 9 8 13 15 10 14 16 10 7 12 15 1 1 8 12 15 6 3 6 8 8 11 11 7 11 6 9 15 10 11 22 18 15 17 19 14
2 4 5 1 1 2 5 13 10 12 11 4 8 10 15 14 12 10 14 7 3 2 7 5 10 15 5 3 3 6 9 7 3 6 13 13 17 4 11 11 11 13 13 19 20
3 3 3 2 1 4 6 7 11 18 17 8 12 15 17 16 19 14 11 8 11 8 5 7 9 13 11 10 8 4 2 1 4 3 6 10 0 6 9 10 10 15 19 21 20
3 3 3 2 4 4 7 9 6 12 14 12 9 13 16 17 19 19 18 14 7 4 6 8 5 10 17 19 18 14 9 5 4 3 3 4 5 14 14 10 5 6 12 17 15
3 3 3 3 3 6 10 11 12 12 11 10 14 13 14 16 17 19 19 17 7 9 4 5 2 6 11 14 20 11 2 5 4 2 11 6 6 14 12 12 10 8 10 10 14
5 3 1 1 2 5 8 12 12 8 7 12 15 15 15 15 16 18 18 17 4 11 8 2 10 12 12 17 19 20 15 16 15 7 10 10 18 18 17 17 16 6 8 12 13
2 3 6 4 6 7 8 7 8 10 9 8 7 13 15 15 16 17 17 17 16 9 9 5 12 15 20 23 24 24 27 26 23 18 18 19 22 21 19 17 17 17 7 12 12
4 3 2 2 8 8 5 7 9 7 4 10 5 8 8 10 8 5 12 12 9 9 5 7 4 10 18 22 23 24 25 24 24 24 24 22 22 20 19 18 16 16 16 13 13
1 2 3 2 7 7 9 8 6 1 3 6 6 7 8 5 6 9 10 11 11 14 13 13 6 6 14 15 17 13 17 18 22 22 21 18 18 19 21 19 16 16 14 14 12
Wind_Direction
209 211 221 251 283 303 323 325 334 333 331 328 326 321 319 320 317 291 273 306 139 6 326 278 267 249 249 263 251 263 269 268 272 276 280 322 2 2 277 298 301 183 268 98 144
222 225 223 228 268 310 319 329 334 327 326 326 323 320 319 326 310 287 134 94 34 8 271 285 301 307 296 276 269 244 247 263 275 288 325 333 311 313 276 230 227 251 112 132 154
218 236 255 278 306 322 326 326 329 325 326 326 324 322 320 323 297 226 181 115 67 323 289 293 288 275 271 274 272 271 258 269 270 288 311 301 303 304 292 260 262 243 196 154 163
221 231 268 299 322 326 323 327 328 326 325 323 323 324 319 301 291 109 176 163 185 269 282 277 273 272 273 280 282 282 274 260 276 284 297 287 286 280 266 276 286 296 44 146 172
217 206 256 324 332 334 328 323 319 317 313 315 318 327 332 272 252 274 175 193 245 232 243 258 263 268 271 275 275 271 273 280 282 280 275 277 270 270 268 275 285 288 266 159 182
175 178 142 10 347 333 325 321 314 314 310 307 312 320 265 276 257 154 217 289 270 275 266 267 263 269 276 279 284 287 289 286 282 283 287 282 275 266 256 255 257 265 269 190 181
155 137 105 57 323 312 302 295 295 296 297 302 307 293 272 252 292 301 292 282 274 279 279 271 275 270 284 282 276 280 273 277 274 272 270 272 264 255 251 247 251 252 245 236 198
141 141 157 267 307 306 299 295 289 288 293 285 276 276 269 277 293 294 282 271 260 255 252 260 265 272 270 277 279 276 273 274 270 272 266 253 258 259 268 258 245 235 233 245 197
157 166 182 301 316 305 299 294 282 279 254 258 239 219 273 249 237 245 250 283 302 262 241 243 241 252 253 247 262 252 264 267 277 271 268 265 280 267 255 253 279 287 269 228 222
157 149 156 301 304 303 300 275 286 277 230 224 250 269 241 263 293 355 269 280 269 275 247 225 237 238 229 238 245 255 258 264 264 262 273 255 266 279 259 270 266 244 264 278 272
164 150 179 322 315 313 315 268 233 184 234 239 216 227 293 232 247 249 298 303 278 284 263 231 229 233 237 241 245 260 265 268 272 281 293 294 289 280 287 258 235 269 250 242 243
144 93 22 332 307 303 278 264 40 353 290 258 253 257 266 281 280 263 258 257 249 255 258 247 249 255 263 253 264 269 270 272 280 285 277 285 279 277 270 272 276 260 251 258 246
107 87 344 316 312 282 244 57 359 340 258 268 239 246 247 247 252 260 258 249 244 259 255 257 263 275 267 264 255 259 259 275 276 279 275 282 277 275 274 265 259 257 256 250 249
111 42 346 324 262 217 203 122 18 352 277 194 163 234 195 232 264 236 244 246 247 248 249 265 265 251 260 266 273 271 273 279 287 285 278 273 279 276 291 286 276 239 276 228 253
90 347 315 304 329 213 108 237 296 227 278 112 123 99 168 220 350 193 211 217 253 257 225 248 276 266 251 252 263 272 325 307 292 294 315 269 262 280 277 283 273 262 46 41 31
76 324 341 224 253 65 68 309 268 229 238 169 126 185 210 219 244 244 210 215 281 268 261 269 275 281 280 285 268 304 319 320 288 265 256 264 257 273 275 331 276 72 61 41 30
136 313 289 311 55 31 309 240 231 235 146 163 237 167 258 274 225 236 271 229 244 279 246 272 255 247 346 297 266 242 275 302 251 228 239 258 257 241 343 56 55 71 61 39 29
164 284 202 43 7 359 242 221 238 239 247 13 182 288 259 262 236 254 267 277 191 288 278 281 278 19 29 17 331 309 255 245 271 256 324 323 264 53 11 52 61 72 62 51 41
90 177 161 72 312 266 216 222 215 231 277 316 295 254 265 262 213 284 257 261 151 129 293 320 288 81 29 27 353 345 271 329 302 249 258 246 255 171 81 29 22 15 359 2 11
209 190 115 35 272 224 219 232 239 272 300 241 276 302 297 295 262 235 263 45 351 355 42 339 291 284 82 199 129 303 2 297 223 269 255 255 263 75 78 67 24 9 13 342 351
188 195 73 16 277 209 223 227 261 267 296 267 275 279 291 290 290 270 270 126 202 208 217 273 235 276 314 254 294 192 189 69 276 284 294 284 293 122 88 68 32 347 347 348 341
142 98 57 169 184 211 234 244 259 285 295 286 238 267 281 288 295 296 291 300 89 298 237 230 240 264 276 298 304 253 274 188 243 188 262 302 286 162 146 123 43 310 306 300 300
73 92 120 232 200 230 250 258 255 269 278 282 276 260 268 274 276 279 278 288 97 272 315 18 295 288 270 260 238 254 221 208 151 167 239 253 264 184 213 244 223 260 254 270 282
120 118 309 182 290 273 246 254 244 198 253 291 291 298 291 275 280 285 279 280 271 249 86 269 258 254 267 285 305 290 265 229 208 229 258 249 274 277 280 300 301 288 299 224 241
32 221 165 181 204 221 274 291 271 260 231 241 263 252 258 273 278 272 280 290 298 222 249 243 254 249 261 271 272 274 280 275 270 251 243 266 266 274 280 299 313 301 272 290 287
134 176 194 292 136 188 157 233 242 271 275 271 303 342 310 293 303 300 318 314 287 324 341 257 255 287 281 279 277 271 266 268 272 282 286 287 287 298 306 302 303 318 306 281 271
351 60 278 124 172 221 202 224 225 177 271 275 291 295 288 321 331 333 316 303 282 285 287 287 282 294 277 291 296 279 263 265 269 267 281 289 304 307 298 298 302 304 320 356 6